Погода в Долинском

Россия / Чеченская Республика     43°24′15″N   45°22′55″E
темп.,
°C
ветер,
м/с
пор.,
м/с
влажн.,
%
обл.,
%
осадки,
мм/ч
давл.,
гПа
погр.,
м
13 мая, чт
чт1300:00+12юв22800 0.0 101419
03:00+11юв11830 0.0 101410
06:00+12в23770 0.0 1013101
09:00+18всв33590 0.0 1014492
12:00+23всв34480 0.0 1014897
15:00+25всв33440 0.0 10131095
18:00+23всв35600 0.0 1013131
21:00+16вюв228174 0.1 101528
14 мая, пт
пт1400:00+14юв228350 0.0 101413
03:00+14вюв118516 0.0 101311
06:00+16ююв11805 0.0 101455
09:00+22св22600 0.0 1013475
12:00+27св33480 0.0 1012784
15:00+30всв34390 0.0 10111051
18:00+24всв35570 0.0 1010143
21:00+18всв11683 0.0 101114
15 мая, сб
сб1500:00+18ююз21690 0.0 101111
03:00+17зюз00760 0.0 101111
06:00+19з22760 0.1 101270
09:00+24ссз22600 0.1 1013468
12:00+28ссз22513 0.0 10131027
15:00+29ссв22444 0.0 10111437
18:00+25всв3653100 0.4 1012123
21:00+19вюв1261100 1.4 101213
16 мая, вс
вс1600:00+19ююв116844 0.3 101111
03:00+17зюз00775 0.3 101011
06:00+18ссз00745 0.0 101041
09:00+24св21575 0.0 1009456
12:00+28всв45410 0.0 1007938
15:00+31в67290 0.0 10051201
18:00+24всв59470 0.0 1005283
21:00+17с11580 0.0 100619
17 мая, пн
пн1700:00+17ююз11606 0.0 100411
03:00+16ююв11653 0.0 100511
06:00+18ююв00615 0.0 100534
09:00+24всв22395 0.0 1005441
12:00+29св33370 0.0 1005838
15:00+30всв55330 0.0 1004972
18:00+24всв3552100 0.0 1005172
21:00+17ссз11645 0.0 100722